Tracking 18785 objects as of 27-July-2017
HD Live streaming from Space Station
objects crossing your sky now
MAYAK may become the brightest orbital object in the night sky!
Where is MAYAK now?
How to spot MAYAK

COSMOS 2251 DEB

Track COSMOS 2251 DEB now!
10-day predictions


NORAD ID: 37326
Int'l Code: 1993-036BKS
Perigee: 682.2 km
Apogee: 778.3 km
Inclination: 74.0 °
Period: 99.3 minutes
Semi major axis: 7101 km
RCS: 0.0127 m2 (small)
Launch date: June 16, 1993
Source: Commonwealth of Independent States (former USSR) (CIS)
Launch site: PLESETSK MISSILE AND SPACE COMPLEX (PKMTR)

Note: This is SATELLITE DEBRIS
Your satellite tracking list
Your tracking list is empty





NASA's NSSDC Master Catalog

Two Line Element Set (TLE):
1 37326U 93036BKS 17205.79833439 +.00000213 +00000-0 +59897-4 0  9991
2 37326 074.0292 000.5045 0067722 170.4276 189.8195 14.50775217411806
Source of the keplerian elements: AFSPC